Location: Grodzisk Wielkopolski
(52.2262°N, 16.3624°E)
Time: 22:20:54
(UTC+01:00)

ISS - Visible Passes

Search period start: 19 January 2018 00:00
Search period end: 29 January 2018 00:00
Orbit: 402 x 407 km, 51.6° (Epoch: 20 January)

Date Brightness Start Highest point End Pass type
(mag) Time Alt. Az. Time Alt. Az. Time Alt. Az.
26 Jan -1.3 18:55:27 10° SSW 18:56:11 14° S 18:56:11 14° S visible
27 Jan -1.7 18:04:01 10° S 18:05:51 14° SE 18:06:11 14° SE visible
27 Jan -0.6 19:38:36 10° SW 19:38:51 12° SW 19:38:51 12° SW visible
28 Jan -2.5 18:46:28 10° SW 18:48:45 31° S 18:48:45 31° S visible
